Probability
2 2 2 2 2 2 1 0 0 0 0 0 0 0 0 0 0 0 0 0 0 0 0 0 0 0 0 0 0 0 0 0 0 0 0 1 2 4
1 1 1 1 1 1 0 1 1 0 0 0 0 0 0 0 0 0 0 0 0 0 0 0 0 0 0 0 0 0 0 0 0 0 0 0 1 2
0 0 0 0 0 0 0 1 1 0 0 0 0 0 0 0 0 0 0 0 0 0 0 0 0 0 0 0 0 0 0 0 0 0 0 0 0 1
0 0 0 0 0 0 0 1 1 0 0 0 0 0 0 0 0 0 0 0 0 0 0 0 0 0 0 0 0 0 0 0 0 0 0 0 0 0
0 0 0 0 0 0 0 0 0 0 0 0 0 0 0 0 0 0 0 0 0 0 0 0 0 0 0 0 0 0 0 0 0 0 0 0 0 0
0 0 0 0 0 0 0 0 0 0 0 0 0 0 0 0 0 0 0 0 0 0 0 0 0 0 0 0 0 0 0 0 0 0 0 0 0 0
0 0 0 0 0 0 0 0 0 0 0 0 0 0 0 0 0 0 0 0 0 0 0 0 0 0 0 0 0 0 0 0 0 0 0 0 0 0
0 0 0 0 0 0 0 0 0 0 0 0 0 0 0 0 0 0 0 0 0 0 0 0 0 0 0 0 0 0 0 0 0 0 0 0 0 0
0 0 0 0 0 0 0 0 0 0 0 0 0 0 0 0 0 0 0 0 0 0 0 0 0 0 0 0 0 0 0 0 0 0 0 0 0 0
0 0 0 0 0 0 0 0 0 0 0 0 0 0 0 0 0 0 0 0 0 0 0 0 0 0 0 0 0 0 0 0 0 0 0 0 0 0
0 0 0 0 0 0 0 0 0 0 0 0 0 0 0 0 0 0 0 0 0 0 0 0 0 0 0 0 0 0 0 0 0 0 0 0 0 0
0 0 0 0 0 0 0 0 0 0 0 0 0 0 0 0 0 0 0 0 0 0 0 0 0 0 0 0 0 0 0 0 0 0 0 0 0 0
0 0 0 0 0 0 0 0 0 0 0 0 0 0 0 0 0 0 0 0 0 0 0 0 0 0 0 0 0 0 0 0 0 0 0 0 0 0
0 0 0 0 0 0 0 0 0 0 0 0 0 0 0 0 0 0 0 0 0 0 0 0 0 0 0 0 0 0 0 0 0 0 0 0 0 0
0 0 0 0 0 0 0 0 0 0 0 0 0 0 0 0 0 0 0 0 0 0 0 0 0 0 0 0 0 0 0 0 0 0 0 0 0 0
0 0 0 0 0 0 0 0 0 0 0 0 0 0 0 0 0 0 0 0 0 0 0 0 0 0 0 0 0 0 0 0 0 0 0 0 0 0
0 0 0 0 0 0 0 0 0 0 0 0 0 0 0 0 0 0 0 0 0 0 0 0 0 0 0 0 0 0 0 0 0 0 0 0 0 0
0 0 0 0 0 0 0 0 0 0 0 0 0 0 0 0 0 0 0 0 0 0 0 0 0 0 0 0 0 0 0 0 0 0 0 0 0 0
0 0 0 0 0 0 0 0 0 0 0 0 0 0 0 0 0 0 0 0 0 0 0 0 0 0 0 0 0 0 0 0 0 0 0 0 0 0
0 0 0 0 0 0 0 0 0 0 0 0 0 0 0 0 0 0 0 0 0 0 0 0 0 0 0 0 0 0 0 0 0 0 0 0 0 0
0 0 0 0 0 0 0 0 0 0 0 0 0 0 0 0 0 0 0 0 0 0 0 0 0 0 0 0 0 0 0 0 0 0 0 0 0 0
0 0 0 0 0 0 0 0 0 0 0 0 0 0 0 0 0 0 0 0 0 0 0 0 0 0 0 0 0 0 0 0 0 0 0 0 0 0
0 0 0 0 0 0 0 0 0 0 0 0 0 0 0 0 0 0 0 0 0 0 0 0 0 0 0 0 0 0 0 0 0 0 0 0 0 0
Wind_Speed
2 2 1 2 2 2 2 2 2 2 2 2 2 1 2 2 3 2 2 4 5 5 6 7 8 8 9 9 10 10 11 12 12 12 12 13 14 14
1 1 1 1 1 1 2 2 2 3 2 2 2 2 2 3 3 2 3 4 5 5 6 6 7 8 8 8 8 8 9 10 11 11 12 13 13 13
1 2 2 2 1 1 1 2 2 2 3 2 1 2 2 3 3 2 2 2 3 5 6 6 6 7 7 7 7 7 7 9 10 11 12 12 13 13
2 1 2 1 2 1 2 2 2 3 3 3 2 2 2 2 2 2 2 2 3 4 5 5 5 4 5 5 6 6 6 7 8 9 10 11 11 12
1 2 2 1 2 2 2 2 2 2 2 2 3 1 2 2 2 2 2 2 3 3 4 3 3 3 3 4 5 6 6 6 7 8 8 9 9 9
1 1 2 2 3 3 2 2 2 1 2 2 2 2 2 2 1 2 2 2 3 3 3 3 2 3 3 4 4 4 5 5 6 7 7 8 8 8
1 1 1 1 1 2 1 1 2 1 1 1 2 2 2 2 2 2 2 2 3 2 2 3 2 2 3 3 4 4 4 4 4 5 6 7 8 8
1 2 2 1 1 1 0 1 1 2 1 1 1 2 3 4 3 2 2 2 3 1 1 3 2 3 3 3 3 3 4 4 4 4 5 6 7 7
0 1 1 2 2 1 2 3 2 1 2 2 2 3 3 4 3 3 2 2 3 3 2 3 2 3 3 3 3 4 5 5 5 4 4 5 6 7
0 0 0 2 1 1 1 2 2 2 1 1 2 3 4 3 3 3 3 3 3 3 2 3 3 3 4 3 4 5 5 5 5 5 5 5 6 7
1 1 0 0 1 1 1 1 2 2 2 1 1 2 3 3 3 1 1 1 3 3 1 2 3 3 3 4 3 4 5 5 5 5 5 6 6 6
1 1 1 1 1 1 1 1 1 2 2 4 4 4 3 2 1 2 2 2 2 3 1 2 2 2 3 2 3 3 3 5 6 6 7 7 6 5
0 1 1 1 1 1 1 1 1 1 1 2 3 3 3 2 2 1 2 3 3 3 2 2 2 2 3 3 3 3 3 3 3 4 6 7 7 7
1 1 0 1 1 1 1 1 1 1 1 1 2 3 3 3 3 3 3 4 5 6 4 4 3 3 3 4 4 3 3 3 3 4 4 5 6 8
1 1 0 0 1 1 2 2 1 1 1 1 2 3 3 4 3 3 3 3 4 5 5 5 5 4 4 5 5 4 4 3 3 3 3 4 4 4
1 2 2 2 1 1 2 1 1 1 1 2 3 3 3 3 3 2 3 3 3 4 3 4 5 5 5 6 5 5 4 4 3 4 4 4 4 5
2 2 2 1 2 2 2 2 1 1 1 2 3 3 3 3 3 3 3 3 3 4 4 3 3 4 6 5 5 5 5 4 4 3 3 4 4 4
2 1 0 0 1 1 2 2 2 2 3 3 3 3 3 3 3 3 3 3 4 4 4 4 3 3 3 4 7 6 5 4 4 4 4 4 5 4
1 1 1 1 2 2 2 2 3 3 3 3 3 3 3 3 3 3 3 3 4 4 4 3 3 3 4 6 4 6 5 5 4 4 4 4 5 5
0 1 1 2 2 2 2 3 3 3 3 3 3 3 3 4 4 4 4 5 5 5 5 4 4 4 5 6 5 4 5 5 4 4 4 4 4 4
1 1 2 2 2 2 3 3 3 3 3 3 3 4 4 4 4 4 5 6 5 5 5 5 5 6 5 3 4 4 3 4 4 4 3 3 3 3
2 2 2 2 2 2 3 3 3 3 4 3 4 4 4 4 5 6 5 5 5 5 6 5 5 3 3 4 5 5 4 3 3 4 4 4 3 3
2 2 2 2 2 2 2 3 4 4 4 4 4 4 4 4 4 5 5 5 5 6 5 5 3 3 3 3 4 4 4 4 2 2 2 2 3 4
Wind_Direction
194 196 194 210 202 197 187 182 188 247 278 274 270 270 269 277 286 282 285 291 287 279 270 260 255 252 253 249 241 233 232 229 227 227 228 228 228 226
183 186 204 215 213 202 195 196 198 206 243 258 257 282 288 293 306 293 290 306 296 289 279 266 259 257 255 253 246 237 230 226 223 223 225 226 226 224
204 203 230 221 216 215 197 192 201 196 233 273 278 296 283 291 312 310 301 299 296 291 280 266 259 256 255 253 248 241 236 231 228 227 225 224 224 225
222 214 243 219 214 219 205 209 212 204 213 260 286 298 283 284 295 298 303 301 293 299 286 264 248 247 250 252 245 240 239 235 229 227 226 224 222 223
221 229 248 212 228 231 219 219 227 218 212 236 276 281 282 297 316 309 310 309 303 303 294 273 257 259 262 258 248 238 236 236 230 225 224 224 220 219
240 244 249 226 232 232 225 223 214 216 221 232 266 289 291 298 293 295 309 321 317 314 318 314 302 288 278 265 255 245 241 243 235 226 223 224 223 220
341 329 331 304 251 223 207 213 203 210 226 243 275 295 302 308 294 285 286 303 310 308 312 312 306 297 289 278 265 250 242 239 237 228 222 218 218 217
345 344 353 2 14 48 103 139 172 190 224 239 270 282 289 288 292 290 295 312 303 308 305 306 303 294 290 275 268 249 233 227 226 225 222 218 213 212
320 347 353 4 26 38 34 37 37 39 194 207 239 262 273 275 276 286 285 280 276 290 279 289 289 282 283 284 261 249 241 236 232 224 221 222 221 217
338 309 333 339 2 32 38 35 22 4 322 234 236 261 271 271 253 255 263 276 281 282 254 271 285 278 285 281 262 248 247 241 235 229 225 227 223 223
355 16 100 357 4 47 84 60 17 355 3 17 312 290 287 280 259 238 252 265 291 295 242 246 276 286 286 279 274 255 255 250 241 236 234 236 232 226
357 14 31 47 22 65 104 109 5 326 340 347 351 346 335 325 288 222 222 234 265 284 256 232 267 287 292 282 286 282 268 260 251 243 237 236 229 219
314 340 1 29 28 37 118 179 243 273 323 332 333 335 335 329 314 279 235 228 241 255 250 224 257 260 261 285 288 281 276 273 261 253 240 235 226 211
230 251 288 351 359 358 19 3 338 342 342 341 333 328 324 315 307 297 273 251 248 256 257 239 245 249 257 271 279 283 278 270 260 258 251 231 223 218
184 183 219 36 35 24 19 8 5 8 344 327 313 306 301 299 304 306 303 283 272 264 256 243 240 247 249 257 268 274 282 276 256 253 252 246 234 220
70 65 59 62 54 41 12 3 350 311 287 289 296 298 302 305 309 311 306 305 298 292 273 251 245 243 251 255 255 264 263 262 261 260 258 253 242 229
105 73 58 40 21 5 356 347 331 315 296 290 292 297 301 305 306 309 299 296 289 293 297 292 269 254 248 249 255 258 261 263 260 261 259 260 250 239
121 110 80 310 292 298 308 312 305 293 287 287 288 289 291 292 297 301 292 285 286 287 287 290 297 294 277 251 230 250 260 263 267 259 252 251 257 250
115 179 238 256 266 272 279 284 289 288 283 279 281 284 284 284 288 292 294 290 286 287 289 288 280 274 283 289 267 228 251 267 267 262 255 253 259 259
233 248 260 266 271 275 279 284 287 291 288 282 278 276 273 277 282 283 283 287 286 286 289 286 273 263 262 275 281 277 246 251 260 267 270 269 265 261
256 263 264 263 267 274 281 284 285 285 289 282 276 275 274 276 279 280 281 283 283 282 283 285 282 272 266 264 273 281 286 252 250 258 267 269 271 266
254 262 264 262 265 274 282 285 288 290 292 288 283 281 280 277 280 283 283 285 283 282 283 286 292 282 265 267 278 287 299 306 283 265 255 247 255 256
258 263 270 271 273 280 283 286 290 291 290 290 288 285 284 282 282 281 282 283 285 287 291 297 300 290 282 278 278 285 295 304 307 310 310 284 248 261